Racecast

Prairie Dog Golf Course

Difficulty:i +0.7% (5000m, the usual distance here) · 264 results · 210 athletes

All 5000m

Distances raced here

DistanceDifficultyiResults FirstLast
5000m +0.7% 264 2019-09-05 2022-09-22

Best speed ratings all distances

Boys

#AthleteRatingi TimeDistSchoolDate
1 Wyndom Giefer 128.4 16:20.1 5000m Trego Community (KS) 2020-09-03
2 Connor Hall 122.7 17:10.9 5000m Norton Community (KS) 2019-09-05
3 Ricky King 118.0 17:51.6 5000m Norton Community (KS) 2019-09-05
4 Kane Epp 116.5 17:52.5 5000m Hoxie (KS) 2022-09-22
5 Elliot Churchwell 116.1 17:56.4 5000m Quinter (KS) 2022-09-22
6 Samuel Pyle 115.3 18:10.8 5000m Ellis (KS) 2020-09-03
7 Micah Simon 114.8 18:08.2 5000m Quinter (KS) 2022-09-22
8 Levi Gleason 113.3 18:23.1 5000m Hoxie (KS) 2022-09-22
9 Connor Diercks 113.2 18:23.9 5000m Hoxie (KS) 2022-09-22
10 Michael Haffner 113.2 18:24.1 5000m Hoxie (KS) 2022-09-22
11 Isiaha Rebarchek 113.1 18:24.6 5000m Oakley (KS) 2022-09-22
12 Aaron Keith 113.1 18:24.6 5000m Hoxie (KS) 2022-09-22
13 Ayston Kats 113.1 18:25.1 5000m Norton Community (KS) 2022-09-22
14 Hans Deaton 112.8 18:28 5000m Quinter (KS) 2022-09-22
15 Draden Herl 111.7 18:38.7 5000m Hoxie (KS) 2022-09-22
16 Tyler Stewart 111.7 18:38.8 5000m Norton Community (KS) 2022-09-22
17 Michael Garvert 111.6 18:39.6 5000m Plainville (CT) 2022-09-22
18 Eli Gruenbacher 111.6 18:47.2 5000m Quinter (KS) 2020-09-03
19 Matthew Elder 110.8 18:48 5000m Quinter (KS) 2022-09-22
20 Stewart Bowman 110.8 18:48.1 5000m Quinter (KS) 2022-09-22
21 Gavin Hickert 110.4 18:52 5000m Brewster (NY) 2022-09-22
22 Rylan Wildeman 110.2 19:02.2 5000m Norton Community (KS) 2020-09-03
23 Derek Clydesdale 110.0 18:56 5000m Norton Community (KS) 2022-09-22
24 Kolton Field 109.8 19:11.8 5000m Norton Community (KS) 2019-09-05
25 Jonathan Hamel 109.0 19:14.7 5000m Stockton (NJ) 2020-09-03
26 Brian Bencomo 108.2 19:22.3 5000m Northern Valley (KS) 2020-09-03
27 Ivan Varela 107.9 19:31.9 5000m Northern Valley (KS) 2019-09-05
28 Eric Moon 107.8 19:33.8 5000m Phillipsburg (NJ) 2019-09-05
29 Clay Shaw 107.7 19:34.8 5000m Ellis (KS) 2019-09-05
30 Sam Pinkerton 107.6 19:35 5000m Phillipsburg (NJ) 2019-09-05
31 Bradley Bogert 107.6 19:21.3 5000m Quinter (KS) 2022-09-22
32 Matt Willour 107.4 19:37.5 5000m Norton Community (KS) 2019-09-05
33 Caden Becker 107.4 19:23.7 5000m Thomas More Prep-Marian (KS) 2022-09-22
34 Cameron Lindsey 107.0 19:27.9 5000m Plainville (CT) 2022-09-22
35 Michael Blanks 106.9 19:43.3 5000m Hill City (SD) 2019-09-05
36 Garrett Urban 106.8 19:43.8 5000m Norton Community (KS) 2019-09-05
37 Carson Schmidt 106.8 19:30.6 5000m Brewster (NY) 2022-09-22
38 Leo Hickert 106.7 19:31.6 5000m Brewster (NY) 2022-09-22
39 Matthew Bieker 106.3 19:43.2 5000m Ellis (KS) 2020-09-03
40 Collin Thielen 105.8 19:49.1 5000m Quinter (KS) 2020-09-03
41 Derian Musquiz 105.8 19:41.3 5000m Norton Community (KS) 2022-09-22
42 Connor Purvis 105.6 19:43.6 5000m Brewster (NY) 2022-09-22
43 Cameron Lindsey 105.3 19:54.8 5000m Stockton (NJ) 2020-09-03
44 Riley Goss 105.3 19:55.3 5000m Norton Community (KS) 2020-09-03
45 Heath Simmons 105.1 19:48.7 5000m Norton Community (KS) 2022-09-22
46 Nicholas Beckman 104.8 20:06.8 5000m Phillipsburg (NJ) 2019-09-05
47 Haydin Litsinberger 104.8 19:52.9 5000m Colby (KS) 2022-09-22
48 Caden Brown 104.7 20:08.3 5000m Trego Community (KS) 2019-09-05
49 Matthew Teeter 103.4 20:09 5000m Oakley (KS) 2022-09-22
50 Tate Blackwill 103.3 20:09.8 5000m Quinter (KS) 2022-09-22
51 Logan North 102.9 20:28.8 5000m Ellis (KS) 2019-09-05
52 John Coumerilh 102.2 20:22.8 5000m Goodland (KS) 2022-09-22
53 Zeke Weiner 101.9 20:26.1 5000m Golden Plains (KS) 2022-09-22
54 Zecharia Dickman 101.4 20:32.2 5000m Thomas More Prep-Marian (KS) 2022-09-22
55 Mason Urban 101.3 20:42.2 5000m Norton Community (KS) 2020-09-03
56 Kendrik Selensky 101.2 20:34.8 5000m Quinter (KS) 2022-09-22
57 Caleb Marintzer 100.9 20:39 5000m Thomas More Prep-Marian (KS) 2022-09-22
58 William Jessup 100.8 20:39.4 5000m Phillipsburg (NJ) 2022-09-22
59 Colby Burkhart 100.6 20:57.3 5000m Trego Community (KS) 2019-09-05
60 Derek Barraza 100.4 20:44.9 5000m Colby (KS) 2022-09-22

View all →

Girls

#AthleteRatingi TimeDistSchoolDate
1 Emma Weiner 131.7 19:03.4 5000m Golden Plains (KS) 2022-09-22
2 Sybil Giefer 128.1 19:45.2 5000m Trego Community (KS) 2019-09-05
3 Jaelyn Rumback 120.7 20:47.1 5000m Norton Community (KS) 2022-09-22
4 Lexi Kats 118.8 21:17.3 5000m Norton Community (KS) 2019-09-05
5 Jaelle Johnson 118.6 21:09.3 5000m Oakley (KS) 2022-09-22
6 Elli Velardes 117.6 21:19.8 5000m Phillipsburg (NJ) 2022-09-22
7 Madi Russell 116.2 21:38.5 5000m Ellis (KS) 2020-09-03
8 Sophia Allen 115.7 21:41.4 5000m Thomas More Prep-Marian (KS) 2022-09-22
9 Isabella Baier 115.3 21:45.5 5000m Hoxie (KS) 2022-09-22
10 Citori Bosserman 115.2 21:47.3 5000m Oakley (KS) 2022-09-22
11 Brooklyn Countryman 114.3 21:57.6 5000m Quinter (KS) 2022-09-22
12 Saige Betz 114.0 22:00.2 5000m Quinter (KS) 2022-09-22
13 Ella Bain 113.8 22:02.5 5000m Thomas More Prep-Marian (KS) 2022-09-22
14 Savana Rumback 113.6 22:05.3 5000m Norton Community (KS) 2022-09-22
15 Taegan Lindenman 113.2 22:09.5 5000m Hoxie (KS) 2022-09-22
16 Ainsley Collins 112.5 22:18 5000m Norton Community (KS) 2022-09-22
17 Daysha Allison 111.7 22:27.8 5000m Oakley (KS) 2022-09-22
18 Mackenzie Clydesdale 111.1 22:40.2 5000m Norton Community (KS) 2021-09-02
19 Michaela Dickman 110.9 22:37.3 5000m Thomas More Prep-Marian (KS) 2022-09-22
20 Catherine Hall 110.9 22:43.1 5000m Norton Community (KS) 2021-09-02
21 Lorelei Granberry 109.9 22:50 5000m Norton Community (KS) 2022-09-22
22 Hannah Bailey 109.9 23:01.4 5000m Norton Community (KS) 2019-09-05
23 Sarah Christian 109.2 22:58.3 5000m Hill City (SD) 2022-09-22
24 Allison Weber 108.3 23:09.8 5000m Thomas More Prep-Marian (KS) 2022-09-22
25 Claire Schippers 108.2 23:11.2 5000m Thomas More Prep-Marian (KS) 2022-09-22
26 Julianna Baalmann 108.2 23:12.1 5000m Thomas More Prep-Marian (KS) 2022-09-22
27 Leah Anstaett 108.0 23:14.4 5000m Quinter (KS) 2022-09-22
28 Jayslin Gabel 107.7 23:18.3 5000m Goodland (KS) 2022-09-22
29 Abbey Hoover 107.5 23:32 5000m Phillipsburg (NJ) 2019-09-05
30 Ella Carter 107.3 23:23.5 5000m Norton Community (KS) 2022-09-22
31 Macy Eberle 106.5 23:36.7 5000m Ellis (KS) 2020-09-03
32 Cappi Hoeting 105.9 23:41.5 5000m Stockton (NJ) 2022-09-22
33 Cheyenne Hoeting 105.5 23:46.5 5000m Stockton (NJ) 2022-09-22
34 Emilie Stramel 105.2 23:51.5 5000m Colby (KS) 2022-09-22
35 Aubrey Losey 105.1 23:51.9 5000m Oakley (KS) 2022-09-22
36 Makenna Kohl 104.7 24:10.3 5000m Ellis (KS) 2019-09-05
37 Gracyn Schippers 104.4 24:01.5 5000m Thomas More Prep-Marian (KS) 2022-09-22
38 Cadence Koch 104.2 24:05.6 5000m Oakley (KS) 2022-09-22
39 Olivia Miller 104.1 24:18 5000m Norton Community (KS) 2019-09-05
40 Tatum Holthus 103.3 24:17.4 5000m Quinter (KS) 2022-09-22
41 Corgan Nickelson 101.7 24:52.3 5000m Norton Community (KS) 2019-09-05
42 Abby Jackson 101.4 24:44.4 5000m Oakley (KS) 2022-09-22
43 Courtney Anstaett 99.7 25:10.5 5000m Quinter (KS) 2022-09-22
44 Natalie Simmons 99.7 25:10.5 5000m Norton Community (KS) 2022-09-22
45 Dianna Douglas 99.3 25:28.6 5000m Norton Community (KS) 2019-09-05
46 Sabrina Todd 99.3 25:29 5000m Norton Community (KS) 2019-09-05
47 Magdalene James 98.7 25:28.1 5000m Ellis (KS) 2020-09-03
48 Claire Scheopner 98.7 25:25.1 5000m Goodland (KS) 2022-09-22
49 Collette Kennedy 98.7 25:37.9 5000m Phillipsburg (NJ) 2019-09-05
50 Michaela Brown 98.1 25:34.5 5000m Phillipsburg (NJ) 2022-09-22
51 Shakira Cook 97.5 25:44.8 5000m Decatur Community (KS) 2022-09-22
52 Acelynn Loughry 97.3 25:47.8 5000m Norton Community (KS) 2022-09-22
53 Kathryn Hurst 96.0 26:11 5000m Atwood-Rawlins Co (KS) 2020-09-03
54 Mali Crawford 94.3 26:39.4 5000m Ellis (KS) 2020-09-03
55 Madeline Miller 94.0 26:44 5000m Norton Community (KS) 2020-09-03
56 Ava Brantley 92.2 27:12.3 5000m Golden Plains (KS) 2022-09-22
57 Porsha Binning 92.0 27:30.5 5000m Atwood-Rawlins Co (KS) 2019-09-05
58 Jessa Borger 91.7 27:25.3 5000m Quinter (KS) 2020-09-03
59 Grace Schmeidler 91.5 27:24.5 5000m Thomas More Prep-Marian (KS) 2022-09-22
60 Brynne Purvis 91.0 27:34.4 5000m Brewster (NY) 2022-09-22

View all →

Best team performances by rating top-5 average rating, one race, all distances

Boys

#SchoolTop-5 avg DistMeetDate
1 Hoxie (KS) 113.9 5000m Norton Invitational 2022-09-22
2 Quinter (KS) 113.1 5000m Norton Invitational 2022-09-22
3 Norton Community (KS) 113.0 5000m Norton Invitational 2019-09-05
4 Trego Community (KS) 105.0 5000m Norton Invitational 2019-09-05
5 Ellis (KS) 104.2 5000m Norton Invitational 2020-09-03
6 Plainville (CT) 100.2 5000m Norton Invitational 2022-09-22
7 Thomas More Prep-Marian (KS) 100.1 5000m Norton Invitational 2022-09-22
8 Phillipsburg (NJ) 100.0 5000m Norton Invitational 2019-09-05
9 Colby (KS) 99.0 5000m Norton Invitational 2022-09-22
10 Goodland (KS) 90.4 5000m Norton Invitational 2022-09-22

View all →

Girls

#SchoolTop-5 avg DistMeetDate
1 Norton Community (KS) 113.0 5000m Norton Invitational 2022-09-22
2 Thomas More Prep-Marian (KS) 111.4 5000m Norton Invitational 2022-09-22
3 Oakley (KS) 111.0 5000m Norton Invitational 2022-09-22
4 Quinter (KS) 107.8 5000m Norton Invitational 2022-09-22
5 Ellis (KS) 104.0 5000m Norton Invitational 2020-09-03

View all →

Meets held here all distances

MeetLast heldDistanceResults
Norton Invitational 2022-09-22 5000 117
Norton Invitational 2021-09-02 5000 14
Norton Invitational 2020-09-03 5000 57
Norton Invitational 2019-09-05 5000 76

View all →